Temperature
13 13 13 13 13 13 13 13 13 13 12 12 12 12 12 11 11 11 11 11 11 11 10 10 10 10 10 10 10 11 11 11 11 11 11 11 11 10 10 10 10 10 10
13 13 13 13 13 13 13 13 13 12 12 12 12 11 11 11 11 10 10 10 11 11 10 10 10 10 10 10 10 10 10 10 10 10 10 10 10 10 10 10 10 10 10
12 12 12 12 12 12 12 12 12 12 12 12 11 11 11 11 10 10 10 10 10 10 10 10 10 10 10 9 9 9 10 10 10 10 10 10 10 10 9 9 9 9 9
12 12 12 12 12 12 12 12 12 12 11 11 11 11 11 10 10 10 10 10 10 10 10 10 10 10 10 9 9 9 9 9 9 9 9 9 9 9 9 9 9 9 9
11 11 12 12 12 11 11 11 11 11 11 11 11 10 10 10 10 10 9 10 10 10 10 10 10 10 9 9 9 9 9 9 9 9 8 8 8 8 8 8 8 8 8
11 11 11 11 11 11 11 11 11 11 10 10 10 10 10 9 9 9 9 9 9 9 9 9 9 9 9 9 9 8 8 8 8 8 8 8 8 8 8 7 7 7 7
11 11 11 11 11 11 11 10 10 10 10 10 10 9 9 9 9 9 9 9 9 9 9 8 8 8 8 8 8 8 8 8 8 8 7 7 7 7 7 7 7 7 6
10 10 10 10 10 10 10 10 10 10 10 9 9 8 8 8 8 8 8 8 8 8 8 8 8 8 8 8 8 8 8 8 7 7 7 7 7 6 6 6 6 6 6
10 10 10 10 10 10 10 10 10 10 9 9 9 8 8 8 7 7 8 8 8 8 7 7 7 7 7 7 7 7 7 7 7 7 6 6 6 6 6 6 5 5 5
9 9 9 9 9 9 9 9 9 9 9 9 9 9 8 8 7 7 7 7 7 7 7 7 7 7 7 7 7 7 7 7 7 6 6 6 6 5 5 5 5 5 5
9 9 9 9 9 9 9 9 9 9 9 8 8 8 8 8 7 7 7 6 6 7 7 7 7 7 6 6 6 6 6 6 6 6 6 5 5 5 5 5 5 4 4
8 9 9 9 9 9 9 8 8 8 8 8 8 7 7 7 7 6 6 6 6 6 6 6 6 6 6 6 6 6 6 6 6 6 5 5 5 5 5 5 4 4 4
8 8 8 8 8 8 8 8 8 8 8 7 7 7 7 7 7 6 6 6 5 5 6 6 6 6 6 5 5 5 5 5 5 5 5 5 5 5 4 4 4 4 4
8 8 8 8 8 8 8 8 7 7 7 7 7 7 6 6 6 6 6 5 5 5 5 5 5 5 5 5 5 5 5 5 5 5 5 4 4 4 4 4 4 4 3
8 8 8 7 7 7 7 7 7 7 7 7 6 6 6 6 6 6 5 5 4 4 4 4 4 4 4 4 4 4 4 4 4 4 4 4 4 4 4 4 3 3 3
7 7 7 7 7 7 7 7 7 6 6 6 6 6 6 5 5 5 5 5 4 4 3 3 4 4 4 4 4 4 4 4 4 4 4 4 3 3 3 3 3 3 3
7 7 7 7 7 7 6 6 6 6 6 6 6 5 5 5 5 5 5 4 4 4 3 3 3 3 3 3 3 3 3 3 3 3 3 3 3 3 3 3 3 2 2
7 7 6 6 6 6 6 6 6 6 5 5 5 5 5 5 5 4 4 4 4 3 3 3 3 3 3 3 3 3 3 3 3 3 3 3 2 2 2 2 2 2 2
6 6 6 6 6 6 6 6 5 5 5 5 5 5 5 4 4 4 4 3 3 3 3 2 2 2 2 2 2 2 2 2 2 2 2 2 2 2 2 2 2 2 1
6 6 6 6 6 5 5 5 5 5 5 4 4 4 4 4 4 3 3 3 3 2 2 2 2 2 2 2 1 1 1 1 1 2 2 2 2 2 2 1 1 1 1
6 6 5 5 5 5 5 5 5 4 4 4 4 4 4 4 3 3 3 3 2 2 2 1 1 1 1 1 1 1 1 1 1 1 1 1 1 1 1 1 1 1 0
5 5 5 5 5 5 5 4 4 4 4 4 4 3 3 3 3 3 2 2 2 2 1 1 1 0 1 0 0 -0 -0 -0 -0 0 0 0 0 0 0 0 0 0 -0
5 5 5 5 4 4 4 4 4 4 3 3 3 3 3 3 3 2 2 2 2 1 1 1 0 0 -0 -0 -1 -1 -1 -1 -1 -1 -1 -0 -0 -1 -1 -0 -0 -1 -1
4 4 4 4 4 4 4 4 3 3 3 3 3 3 2 2 2 2 2 1 1 1 1 0 0 -0 -0 -1 -1 -1 -1 -1 -1 -1 -2 -2 -1 -1 -1 -1 -1 -1 -1
4 4 4 4 4 4 3 3 3 3 3 3 2 2 2 2 2 1 1 1 1 1 0 0 -0 -0 -1 -1 -1 -2 -2 -2 -2 -2 -2 -2 -2 -2 -2 -1 -2 -2 -2
4 4 3 3 3 3 3 3 2 2 2 2 2 2 2 2 1 1 1 0 -0 -0 -0 -0 -1 -1 -1 -1 -1 -2 -2 -3 -3 -3 -3 -3 -3 -3 -3 -2 -2 -2 -3
Wind_Speed
6 5 5 5 5 4 5 4 4 5 6 5 5 5 5 5 5 6 7 10 9 8 8 8 8 8 8 8 8 8 7 7 7 7 7 8 8 9 9 9 10 10 10
6 6 5 4 4 4 4 5 5 5 5 5 5 5 5 5 5 6 6 8 10 10 9 8 8 8 8 8 7 8 7 7 6 7 7 8 8 9 9 9 10 10 10
6 6 5 4 4 5 5 5 6 5 5 5 5 5 5 5 5 6 6 6 7 9 9 8 8 8 8 7 7 7 8 7 7 7 8 9 9 9 9 9 9 10 10
6 6 5 5 5 5 5 4 4 5 5 5 4 4 4 4 5 5 5 5 5 5 7 8 8 8 7 7 7 7 7 7 7 7 8 8 8 9 9 9 9 10 10
5 5 5 5 6 5 4 4 4 4 5 5 4 4 3 3 3 3 4 4 4 4 4 6 7 8 7 7 6 6 6 6 6 7 7 8 8 8 8 8 8 9 9
5 5 5 6 6 4 4 4 5 5 5 5 5 4 3 3 3 3 3 3 3 3 3 3 3 5 6 7 6 5 6 6 6 6 6 6 7 7 8 8 8 9 9
5 5 4 5 4 4 5 5 5 6 4 4 3 3 2 2 2 2 2 2 2 2 2 2 2 2 3 4 6 6 6 5 5 5 5 6 6 7 7 8 8 8 9
4 4 4 4 4 4 5 5 5 4 3 2 1 2 2 2 2 1 1 1 1 1 1 1 2 2 2 2 4 5 6 6 6 5 5 6 7 7 7 8 8 8 9
4 4 4 4 4 4 4 4 4 4 3 2 0 1 1 2 1 2 2 2 1 1 1 0 0 1 1 2 2 3 5 6 6 6 6 6 7 8 8 8 8 8 8
4 5 4 4 4 3 4 4 3 2 4 3 1 1 2 1 1 2 2 2 2 2 2 1 1 1 1 1 2 4 5 6 7 7 7 7 7 8 9 9 8 9 9
4 4 4 4 3 3 3 4 3 3 2 3 2 1 1 1 2 2 2 2 2 2 2 2 2 2 2 2 2 3 4 6 7 8 8 8 8 9 9 10 9 9 9
3 3 4 3 3 3 3 3 3 3 2 2 2 2 2 2 2 2 3 3 3 2 3 3 3 3 3 3 3 4 5 6 7 8 9 9 9 10 10 10 10 10 10
3 3 3 3 3 3 3 3 3 3 3 3 2 2 2 2 1 2 3 3 4 3 3 3 3 4 4 4 4 4 6 6 8 9 9 10 10 10 10 11 11 10 11
3 4 4 3 3 3 3 3 3 3 3 3 3 2 2 2 2 2 2 3 4 4 4 4 3 4 4 5 4 5 6 7 8 9 10 10 10 10 10 11 11 11 11
4 5 5 4 4 4 4 4 3 3 3 3 3 3 2 2 2 2 2 3 3 4 5 3 3 3 3 5 5 6 7 7 9 10 10 10 10 11 11 11 11 11 11
5 6 5 5 5 4 4 4 3 4 4 3 3 4 3 3 2 2 3 3 4 4 5 3 4 4 4 6 7 8 8 9 10 10 11 11 11 11 11 12 12 12 12
6 6 6 6 5 5 5 5 5 5 5 4 4 5 5 4 3 3 3 4 4 4 6 5 5 5 6 7 7 8 9 9 9 10 12 12 12 12 12 12 12 12 12
6 6 6 6 6 6 6 6 6 6 6 6 5 5 5 4 5 4 4 5 5 5 6 7 6 5 7 7 7 8 8 8 9 10 12 13 13 13 12 12 12 12 12
6 6 7 7 6 6 6 6 6 6 6 6 6 6 6 6 6 5 5 5 5 5 6 6 7 5 6 6 7 7 8 8 8 9 10 12 13 13 12 12 12 12 11
6 7 7 7 7 7 7 7 7 7 7 7 6 7 7 7 7 6 6 6 6 6 6 7 7 6 6 6 6 6 6 6 6 7 8 10 11 12 12 13 12 12 11
6 7 7 7 7 7 7 8 7 7 7 7 7 7 7 7 7 7 6 6 6 6 6 6 7 7 6 6 6 5 7 7 7 5 6 7 7 8 9 11 12 12 12
6 7 7 7 7 7 8 10 8 7 7 8 8 7 7 8 8 10 10 9 9 8 8 7 7 8 8 7 6 6 6 7 6 3 5 7 6 7 7 8 9 11 12
7 7 8 8 8 8 9 11 11 8 8 8 8 8 6 6 8 8 9 10 11 12 11 9 9 10 9 8 7 7 7 8 8 6 6 7 6 7 7 9 11 11 11
7 7 8 8 8 8 10 11 11 10 9 9 9 9 8 8 8 8 8 8 9 9 10 9 10 10 9 8 8 8 8 9 9 7 6 7 6 7 7 8 9 10 11
7 7 7 7 8 8 9 11 10 8 8 9 9 9 9 9 9 10 8 8 9 9 9 11 11 11 11 11 9 6 6 6 7 6 5 5 5 6 7 6 6 8 10
6 6 7 7 8 8 9 11 11 7 8 8 7 8 10 10 10 11 9 9 10 9 7 7 8 10 10 10 10 8 7 7 6 5 3 4 5 4 5 4 4 6 7
Wind_Direction
132 125 123 125 125 126 131 130 129 128 126 118 114 116 113 114 115 107 90 71 68 72 73 67 62 61 59 57 59 54 48 44 41 40 40 36 28 22 21 21 18 15 12
135 130 125 118 117 121 122 126 123 124 121 119 116 112 112 113 112 105 98 86 75 73 72 67 60 55 52 52 56 53 48 40 39 39 38 34 29 25 23 19 14 13 12
135 130 126 121 117 119 121 120 120 118 114 115 114 107 103 109 113 110 102 96 91 78 73 67 58 51 46 46 49 49 46 41 45 42 40 38 32 26 20 20 21 19 16
139 135 129 123 121 122 125 123 124 120 118 117 110 105 107 108 110 106 104 100 96 90 79 66 58 51 44 41 42 42 41 46 44 39 36 33 28 24 22 25 24 20 15
139 136 129 128 130 128 126 127 126 126 120 112 106 103 105 110 106 109 106 99 94 91 87 78 66 52 42 37 34 34 38 42 38 34 32 29 23 18 17 18 18 15 11
141 133 126 131 134 133 131 132 125 119 116 118 116 106 101 102 112 112 111 102 95 89 83 79 73 64 49 36 30 32 35 31 29 26 20 16 10 6 2 3 6 5 2
139 136 133 135 140 139 138 138 132 126 118 124 128 121 114 109 120 133 132 120 101 90 82 66 50 44 54 51 38 31 25 16 8 9 6 359 353 352 351 352 353 355 354
139 138 139 145 147 142 141 142 140 138 133 146 164 168 173 174 160 169 170 165 152 132 103 66 53 35 22 26 45 29 14 360 349 346 345 346 346 343 342 341 342 343 343
136 132 140 147 150 148 148 151 156 155 157 153 272 243 214 213 170 182 200 205 216 219 217 349 359 13 14 13 3 19 3 351 342 337 334 332 332 332 331 330 332 330 332
133 132 136 139 140 145 151 158 161 168 171 171 168 342 333 322 222 197 192 205 234 247 252 242 247 255 304 334 348 354 347 336 332 328 324 323 323 323 323 324 324 324 324
127 130 132 133 140 145 148 154 158 167 184 188 184 180 185 237 251 244 235 226 238 240 256 249 237 238 251 268 289 328 326 321 319 319 317 315 317 317 316 318 318 318 318
137 134 134 140 149 150 153 157 161 170 175 182 187 200 212 225 225 238 253 253 256 245 247 242 235 235 244 259 273 303 299 303 306 308 308 309 310 310 310 311 311 312 312
160 160 155 159 161 159 157 157 162 169 173 178 188 202 220 240 243 243 256 265 268 263 245 239 235 238 244 261 272 297 286 290 295 298 300 302 305 307 307 307 306 306 307
168 171 174 174 173 169 166 166 168 171 176 180 187 200 208 215 224 233 248 258 269 259 245 244 236 234 246 263 281 284 280 282 290 293 294 296 299 300 301 301 302 301 302
173 175 176 177 178 178 178 175 181 183 184 189 192 199 210 212 220 232 239 246 260 269 264 248 243 231 258 275 277 278 279 282 283 283 285 289 292 293 292 293 296 296 296
179 178 179 184 185 185 184 186 189 195 197 198 202 207 214 217 218 222 225 236 247 261 268 265 261 265 271 276 280 278 279 281 273 276 281 284 287 288 289 288 289 292 291
188 187 189 190 190 190 192 195 199 197 203 207 210 216 220 219 221 221 222 228 233 242 261 271 266 273 274 276 282 282 280 278 276 273 277 278 281 283 284 283 282 284 286
196 195 195 196 197 198 200 203 204 205 209 214 216 220 224 221 228 229 227 231 236 237 253 270 272 270 272 280 285 286 283 279 280 277 274 274 276 277 278 280 282 282 283
199 196 198 201 203 205 210 213 213 215 218 222 221 223 227 224 230 231 232 236 239 242 246 262 273 274 274 277 285 284 282 282 283 280 275 271 272 276 275 277 280 279 279
205 202 205 208 209 209 212 215 216 220 224 227 228 229 230 228 232 233 235 237 238 241 244 254 266 273 274 278 279 284 287 286 287 282 276 276 274 273 270 273 275 275 275
215 210 211 213 213 213 216 215 216 222 227 230 232 233 233 231 235 236 236 238 236 242 247 254 263 270 271 276 277 281 285 292 287 278 283 281 276 271 271 268 268 270 272
216 214 215 217 217 220 217 219 223 226 229 233 236 236 234 230 231 235 239 242 241 243 247 253 260 264 269 273 280 281 284 290 290 278 289 286 276 273 274 271 271 273 270
218 219 220 221 225 226 220 222 225 231 233 235 237 237 234 233 232 236 237 239 243 245 247 252 258 263 270 271 276 276 275 277 278 292 292 283 276 274 278 275 273 270 267
222 224 225 226 231 232 224 227 226 231 237 238 238 237 238 238 233 233 238 241 245 246 245 249 256 263 267 270 265 269 276 279 279 274 271 279 284 281 285 279 266 265 267
226 227 229 229 233 237 228 229 226 232 236 240 240 239 238 241 235 230 236 243 250 253 249 248 257 265 270 267 262 263 265 273 279 276 256 266 287 293 287 275 267 263 263
233 233 235 234 235 241 233 229 226 230 237 241 241 240 236 238 238 230 236 242 250 256 256 254 253 257 260 258 250 249 253 261 272 276 247 254 279 293 291 276 275 276 269
Height
1524 1525 1527 1528 1529 1530 1531 1532 1533 1534 1534 1535 1536 1537 1538 1538 1539 1539 1540 1540 1540 1540 1540 1540 1540 1539 1539 1538 1537 1537 1536 1535 1535 1534 1533 1532 1532 1531 1530 1529 1528 1527 1526
1523 1524 1526 1527 1528 1529 1530 1531 1532 1532 1533 1534 1535 1536 1536 1537 1538 1538 1539 1539 1539 1539 1539 1539 1539 1539 1538 1537 1537 1536 1535 1534 1533 1533 1532 1531 1530 1529 1528 1527 1526 1525 1524
1522 1523 1525 1526 1527 1528 1529 1530 1531 1532 1532 1533 1534 1535 1535 1536 1537 1537 1538 1538 1538 1538 1538 1538 1538 1537 1537 1536 1536 1535 1534 1533 1532 1532 1531 1530 1529 1528 1527 1526 1525 1524 1522
1521 1522 1524 1525 1526 1527 1528 1529 1530 1530 1531 1532 1533 1533 1534 1534 1535 1536 1537 1537 1537 1537 1537 1537 1537 1536 1536 1535 1534 1534 1533 1532 1531 1530 1530 1529 1528 1527 1526 1525 1524 1522 1521
1520 1521 1522 1523 1525 1526 1527 1528 1529 1530 1530 1531 1532 1532 1533 1533 1534 1535 1535 1536 1536 1536 1536 1535 1535 1535 1534 1534 1533 1532 1532 1531 1530 1529 1528 1528 1527 1525 1524 1523 1522 1521 1519
1519 1520 1521 1522 1523 1525 1526 1527 1528 1528 1529 1530 1531 1531 1532 1532 1533 1534 1534 1534 1534 1534 1534 1534 1534 1533 1533 1532 1532 1531 1530 1530 1529 1528 1527 1526 1525 1524 1523 1522 1520 1519 1517
1518 1519 1520 1521 1522 1524 1525 1526 1526 1527 1528 1529 1530 1530 1531 1531 1532 1532 1533 1533 1533 1533 1533 1532 1532 1532 1531 1531 1530 1529 1528 1528 1527 1526 1525 1524 1523 1522 1521 1520 1518 1517 1515
1516 1518 1519 1520 1521 1522 1523 1524 1525 1526 1527 1528 1529 1530 1531 1532 1530 1531 1531 1531 1531 1531 1531 1531 1530 1530 1529 1529 1528 1527 1527 1526 1525 1524 1523 1522 1521 1520 1519 1517 1516 1514 1513
1515 1516 1518 1519 1520 1521 1522 1523 1524 1525 1526 1526 1527 1529 1530 1530 1530 1529 1529 1529 1529 1529 1529 1529 1528 1528 1527 1526 1526 1525 1524 1523 1523 1521 1520 1520 1519 1517 1516 1515 1513 1512 1510
1513 1515 1516 1517 1518 1519 1520 1521 1522 1523 1524 1525 1526 1526 1528 1528 1529 1528 1527 1527 1527 1527 1527 1526 1526 1525 1525 1524 1523 1522 1522 1521 1520 1519 1517 1516 1515 1514 1513 1512 1510 1509 1507
1512 1513 1514 1516 1517 1518 1519 1520 1520 1521 1522 1523 1524 1524 1525 1525 1525 1526 1526 1525 1525 1524 1524 1523 1523 1522 1522 1521 1520 1519 1518 1518 1517 1516 1514 1513 1512 1511 1509 1508 1507 1505 1504
1510 1511 1513 1514 1516 1517 1517 1518 1519 1519 1520 1521 1521 1522 1523 1523 1523 1523 1523 1523 1522 1522 1521 1520 1520 1519 1519 1518 1517 1516 1515 1514 1513 1512 1511 1510 1508 1507 1506 1504 1503 1502 1500
1509 1510 1511 1512 1514 1515 1515 1516 1516 1517 1518 1518 1519 1520 1520 1520 1520 1521 1521 1520 1520 1519 1518 1517 1516 1516 1515 1515 1514 1513 1512 1511 1509 1508 1507 1505 1504 1503 1501 1500 1499 1497 1496
1508 1509 1510 1511 1512 1512 1513 1514 1514 1515 1515 1516 1516 1517 1517 1518 1518 1518 1518 1518 1517 1516 1515 1514 1513 1512 1512 1511 1510 1509 1508 1506 1505 1504 1502 1501 1500 1499 1497 1496 1494 1493 1491
1506 1507 1508 1509 1509 1510 1511 1511 1512 1513 1513 1513 1514 1514 1515 1515 1514 1514 1515 1515 1516 1514 1513 1511 1511 1509 1508 1507 1506 1505 1503 1502 1501 1499 1498 1496 1495 1494 1492 1491 1489 1488 1487
1503 1504 1505 1506 1507 1507 1508 1508 1509 1510 1510 1511 1511 1511 1511 1511 1511 1511 1511 1511 1511 1511 1509 1508 1507 1506 1504 1503 1502 1500 1499 1497 1496 1494 1493 1491 1490 1489 1487 1486 1484 1483 1482
1500 1501 1503 1503 1504 1504 1505 1505 1506 1507 1507 1507 1508 1508 1508 1508 1508 1508 1507 1507 1507 1506 1505 1503 1503 1502 1500 1499 1497 1496 1494 1493 1491 1489 1488 1486 1485 1483 1482 1481 1479 1478 1476
1497 1498 1499 1499 1500 1501 1502 1502 1503 1503 1504 1504 1504 1504 1504 1504 1504 1504 1503 1503 1503 1502 1501 1499 1498 1497 1496 1494 1493 1491 1489 1488 1486 1484 1483 1481 1480 1478 1477 1475 1474 1472 1471
1493 1494 1495 1495 1496 1497 1498 1499 1499 1500 1500 1500 1500 1500 1500 1500 1500 1500 1499 1499 1498 1497 1496 1495 1493 1492 1490 1489 1488 1486 1484 1482 1481 1479 1478 1476 1475 1473 1471 1470 1469 1467 1466
1490 1490 1491 1492 1493 1493 1494 1495 1495 1496 1496 1496 1496 1496 1496 1496 1496 1495 1495 1494 1493 1493 1492 1490 1488 1487 1485 1484 1483 1481 1479 1477 1475 1474 1472 1471 1469 1468 1466 1464 1463 1462 1460
1486 1486 1487 1488 1488 1489 1490 1490 1491 1491 1491 1491 1491 1491 1491 1491 1491 1491 1490 1490 1489 1488 1487 1486 1484 1482 1481 1479 1478 1476 1474 1472 1470 1469 1467 1465 1464 1462 1460 1459 1457 1456 1455
1481 1481 1482 1483 1484 1484 1485 1486 1487 1487 1487 1486 1486 1486 1486 1486 1486 1485 1485 1484 1484 1483 1482 1481 1479 1478 1476 1475 1473 1472 1470 1467 1465 1465 1462 1460 1459 1457 1455 1453 1452 1450 1449
1477 1477 1478 1479 1479 1480 1480 1481 1481 1482 1481 1481 1481 1481 1481 1480 1480 1480 1479 1479 1478 1478 1477 1476 1474 1473 1471 1470 1469 1467 1465 1463 1461 1459 1457 1454 1453 1451 1450 1448 1447 1445 1444
1472 1473 1473 1474 1474 1474 1475 1475 1476 1476 1476 1476 1476 1476 1475 1475 1475 1475 1474 1473 1472 1472 1472 1470 1469 1468 1466 1465 1464 1463 1461 1458 1456 1455 1453 1450 1448 1446 1444 1443 1441 1440 1438
1467 1468 1468 1468 1468 1469 1470 1470 1470 1470 1470 1470 1470 1470 1469 1469 1469 1469 1468 1467 1466 1466 1465 1464 1463 1462 1461 1460 1459 1457 1455 1453 1450 1449 1448 1446 1443 1441 1439 1437 1436 1435 1433
1462 1462 1462 1463 1463 1463 1464 1464 1465 1464 1464 1464 1464 1464 1463 1463 1463 1463 1462 1462 1461 1460 1459 1458 1457 1456 1455 1454 1453 1452 1450 1448 1446 1444 1442 1441 1439 1437 1434 1432 1431 1430 1428